GFSMW_prec_precacc24_081.txt.gz
Total_Precipitation_Accumulation
0.00 0.00 0.00 0.00 0.00 0.00 0.00 0.00 0.06 0.16 0.08 0.05 0.00 0.01 0.06 0.14 0.23 0.21 0.22 0.15 0.17 0.09 0.13 0.04 0.03 0.00 0.00 0.00 0.00 0.00 0.00 0.00 0.00 0.00 0.00 0.00 0.00 0.00 0.00 0.00 0.00 0.00 0.00
0.00 0.00 0.00 0.00 0.00 0.00 0.00 0.02 0.06 0.15 0.09 0.04 0.00 0.00 0.03 0.09 0.16 0.23 0.12 0.11 0.19 0.17 0.06 0.01 0.01 0.00 0.00 0.00 0.00 0.00 0.00 0.00 0.00 0.00 0.00 0.00 0.00 0.00 0.00 0.00 0.00 0.00 0.00
0.00 0.00 0.00 0.00 0.00 0.00 0.00 0.00 0.02 0.13 0.11 0.05 0.06 0.09 0.15 0.14 0.13 0.28 0.20 0.09 0.18 0.25 0.19 0.02 0.00 0.00 0.00 0.00 0.00 0.00 0.00 0.00 0.00 0.00 0.00 0.00 0.00 0.00 0.00 0.00 0.00 0.00 0.00
0.00 0.00 0.00 0.00 0.00 0.00 0.00 0.02 0.06 0.11 0.15 0.19 0.23 0.18 0.16 0.14 0.09 0.09 0.06 0.07 0.07 0.03 0.03 0.01 0.00 0.00 0.00 0.00 0.00 0.00 0.00 0.00 0.00 0.00 0.00 0.00 0.00 0.00 0.00 0.00 0.00 0.00 0.00
0.01 0.00 0.01 0.02 0.01 0.04 0.04 0.09 0.13 0.14 0.11 0.17 0.31 0.19 0.17 0.18 0.18 0.09 0.09 0.08 0.09 0.06 0.06 0.02 0.00 0.00 0.00 0.00 0.00 0.00 0.00 0.00 0.00 0.00 0.00 0.00 0.00 0.00 0.00 0.00 0.00 0.00 0.00
0.00 0.00 0.02 0.02 0.03 0.11 0.17 0.15 0.13 0.14 0.14 0.21 0.26 0.26 0.18 0.14 0.10 0.08 0.09 0.07 0.04 0.03 0.02 0.01 0.00 0.00 0.00 0.00 0.00 0.00 0.00 0.00 0.00 0.00 0.00 0.00 0.00 0.00 0.00 0.00 0.00 0.00 0.00
0.01 0.01 0.02 0.06 0.09 0.20 0.21 0.16 0.13 0.11 0.15 0.19 0.26 0.20 0.14 0.09 0.08 0.04 0.04 0.04 0.03 0.03 0.02 0.01 0.02 0.01 0.01 0.02 0.02 0.01 0.00 0.00 0.00 0.00 0.00 0.00 0.00 0.00 0.00 0.01 0.01 0.01 0.00
0.00 0.01 0.04 0.06 0.10 0.30 0.22 0.10 0.04 0.03 0.05 0.08 0.15 0.13 0.13 0.10 0.08 0.07 0.12 0.05 0.03 0.03 0.04 0.04 0.03 0.05 0.06 0.04 0.02 0.00 0.00 0.00 0.00 0.00 0.00 0.00 0.00 0.00 0.00 0.01 0.02 0.03 0.00
0.00 0.00 0.02 0.04 0.09 0.19 0.13 0.04 0.01 0.00 0.01 0.02 0.06 0.10 0.11 0.07 0.13 0.31 0.17 0.16 0.07 0.04 0.03 0.07 0.10 0.09 0.06 0.03 0.03 0.07 0.07 0.04 0.01 0.01 0.01 0.01 0.00 0.00 0.00 0.00 0.01 0.03 0.02
0.00 0.00 0.01 0.02 0.05 0.13 0.05 0.03 0.04 0.01 0.00 0.01 0.04 0.04 0.10 0.10 0.15 0.29 0.13 0.15 0.10 0.11 0.15 0.12 0.13 0.13 0.13 0.21 0.31 0.28 0.15 0.07 0.06 0.05 0.01 0.00 0.00 0.00 0.00 0.00 0.00 0.00 0.04
0.00 0.00 0.00 0.00 0.04 0.10 0.08 0.03 0.11 0.06 0.01 0.02 0.02 0.04 0.18 0.16 0.16 0.22 0.29 0.24 0.28 0.25 0.25 0.30 0.36 0.52 0.59 0.48 0.33 0.21 0.15 0.09 0.05 0.02 0.01 0.00 0.00 0.00 0.00 0.00 0.00 0.01 0.02
0.00 0.00 0.00 0.00 0.01 0.10 0.11 0.04 0.09 0.07 0.03 0.05 0.10 0.12 0.28 0.29 0.30 0.33 0.28 0.31 0.32 0.34 0.47 0.51 0.38 0.25 0.16 0.11 0.09 0.08 0.06 0.04 0.02 0.01 0.00 0.00 0.00 0.00 0.00 0.00 0.00 0.00 0.00
0.00 0.00 0.00 0.00 0.01 0.05 0.12 0.08 0.11 0.08 0.08 0.23 0.29 0.23 0.37 0.38 0.46 0.46 0.50 0.45 0.37 0.32 0.22 0.14 0.16 0.17 0.13 0.09 0.07 0.03 0.01 0.00 0.00 0.00 0.00 0.00 0.00 0.00 0.00 0.00 0.00 0.00 0.00
0.00 0.00 0.00 0.00 0.04 0.10 0.15 0.15 0.26 0.24 0.28 0.37 0.38 0.31 0.33 0.40 0.32 0.34 0.39 0.45 0.30 0.20 0.22 0.26 0.23 0.12 0.05 0.02 0.01 0.00 0.00 0.00 0.00 0.00 0.00 0.00 0.00 0.00 0.00 0.00 0.00 0.00 0.00
0.00 0.01 0.01 0.03 0.07 0.14 0.16 0.18 0.25 0.28 0.36 0.36 0.39 0.35 0.48 0.68 0.50 0.45 0.32 0.18 0.13 0.11 0.08 0.05 0.03 0.01 0.00 0.00 0.00 0.00 0.00 0.00 0.00 0.00 0.00 0.00 0.00 0.00 0.00 0.00 0.00 0.00 0.00
0.00 0.02 0.03 0.03 0.09 0.16 0.14 0.14 0.23 0.27 0.27 0.26 0.26 0.40 0.49 0.29 0.25 0.18 0.09 0.04 0.01 0.01 0.01 0.00 0.00 0.00 0.00 0.00 0.00 0.00 0.00 0.00 0.00 0.00 0.00 0.00 0.00 0.00 0.00 0.00 0.00 0.00 0.00
0.00 0.01 0.01 0.03 0.04 0.10 0.17 0.19 0.20 0.20 0.17 0.15 0.16 0.19 0.14 0.07 0.06 0.04 0.02 0.01 0.01 0.01 0.00 0.00 0.00 0.00 0.00 0.00 0.00 0.00 0.00 0.00 0.00 0.00 0.00 0.00 0.00 0.00 0.00 0.00 0.00 0.00 0.00
0.00 0.00 0.00 0.01 0.01 0.05 0.07 0.11 0.09 0.10 0.09 0.09 0.08 0.06 0.04 0.02 0.02 0.02 0.03 0.02 0.01 0.00 0.00 0.00 0.00 0.00 0.00 0.00 0.00 0.00 0.00 0.00 0.00 0.00 0.00 0.00 0.00 0.00 0.00 0.00 0.00 0.01 0.02
0.00 0.00 0.00 0.00 0.00 0.00 0.00 0.01 0.03 0.04 0.02 0.01 0.01 0.00 0.00 0.00 0.01 0.02 0.01 0.00 0.00 0.00 0.00 0.00 0.00 0.00 0.00 0.00 0.00 0.00 0.00 0.00 0.00 0.00 0.00 0.00 0.00 0.00 0.00 0.00 0.01 0.01 0.00
0.00 0.00 0.00 0.00 0.00 0.00 0.00 0.00 0.00 0.00 0.00 0.00 0.00 0.00 0.00 0.00 0.00 0.00 0.00 0.00 0.00 0.00 0.00 0.00 0.00 0.00 0.00 0.00 0.00 0.00 0.00 0.00 0.00 0.00 0.00 0.00 0.00 0.00 0.00 0.01 0.02 0.04 0.01
0.00 0.00 0.00 0.00 0.00 0.00 0.00 0.00 0.00 0.00 0.00 0.00 0.00 0.00 0.00 0.00 0.00 0.00 0.00 0.00 0.00 0.00 0.00 0.00 0.00 0.00 0.00 0.00 0.00 0.00 0.00 0.00 0.00 0.00 0.00 0.00 0.00 0.00 0.00 0.01 0.03 0.03 0.01
0.00 0.00 0.00 0.00 0.00 0.00 0.00 0.00 0.00 0.00 0.00 0.00 0.00 0.00 0.00 0.00 0.00 0.00 0.00 0.00 0.00 0.00 0.00 0.00 0.00 0.00 0.00 0.00 0.00 0.00 0.00 0.00 0.01 0.01 0.00 0.00 0.00 0.01 0.00 0.01 0.01 0.01 0.02
0.00 0.00 0.00 0.00 0.00 0.00 0.00 0.00 0.00 0.00 0.00 0.00 0.00 0.00 0.00 0.00 0.00 0.00 0.00 0.00 0.00 0.00 0.00 0.00 0.00 0.00 0.00 0.00 0.00 0.00 0.00 0.00 0.03 0.04 0.02 0.02 0.03 0.06 0.08 0.05 0.05 0.10 0.17
0.00 0.00 0.00 0.00 0.00 0.00 0.00 0.00 0.00 0.00 0.00 0.00 0.00 0.00 0.00 0.00 0.00 0.00 0.00 0.00 0.00 0.00 0.00 0.00 0.00 0.00 0.00 0.00 0.00 0.01 0.01 0.01 0.04 0.05 0.05 0.06 0.07 0.07 0.08 0.07 0.07 0.11 0.10
0.00 0.00 0.00 0.00 0.00 0.00 0.00 0.00 0.00 0.00 0.00 0.00 0.00 0.00 0.00 0.00 0.00 0.00 0.00 0.00 0.00 0.00 0.00 0.00 0.00 0.01 0.01 0.00 0.01 0.01 0.03 0.04 0.06 0.09 0.12 0.10 0.10 0.09 0.09 0.09 0.07 0.06 0.07
0.00 0.00 0.00 0.00 0.00 0.00 0.00 0.00 0.00 0.00 0.00 0.00 0.00 0.00 0.00 0.00 0.01 0.01 0.00 0.00 0.00 0.00 0.00 0.01 0.01 0.01 0.01 0.00 0.01 0.02 0.06 0.09 0.12 0.25 0.16 0.10 0.10 0.10 0.09 0.12 0.11 0.10 0.10

GFSMW_prec_precacc24_087.txt.gz
Total_Precipitation_Accumulation
0.00 0.01 0.01 0.02 0.03 0.02 0.02 0.04 0.16 0.24 0.10 0.08 0.01 0.02 0.08 0.18 0.24 0.21 0.22 0.15 0.17 0.10 0.18 0.08 0.04 0.00 0.00 0.00 0.00 0.00 0.00 0.00 0.00 0.00 0.00 0.00 0.00 0.00 0.00 0.00 0.00 0.00 0.00
0.00 0.00 0.00 0.00 0.00 0.00 0.00 0.01 0.07 0.15 0.10 0.06 0.00 0.00 0.03 0.10 0.17 0.23 0.12 0.11 0.19 0.18 0.07 0.02 0.07 0.00 0.00 0.00 0.00 0.00 0.00 0.00 0.00 0.00 0.00 0.00 0.00 0.00 0.00 0.00 0.00 0.00 0.00
0.00 0.00 0.00 0.00 0.00 0.00 0.00 0.00 0.02 0.11 0.09 0.03 0.04 0.07 0.15 0.14 0.13 0.28 0.20 0.09 0.18 0.28 0.22 0.02 0.02 0.02 0.01 0.00 0.00 0.00 0.00 0.00 0.00 0.00 0.00 0.00 0.00 0.00 0.00 0.00 0.00 0.00 0.00
0.00 0.00 0.00 0.00 0.00 0.00 0.00 0.00 0.00 0.02 0.09 0.13 0.14 0.14 0.16 0.14 0.09 0.09 0.06 0.07 0.08 0.09 0.07 0.01 0.01 0.01 0.00 0.01 0.00 0.00 0.00 0.00 0.00 0.00 0.00 0.00 0.00 0.00 0.00 0.00 0.00 0.00 0.00
0.00 0.00 0.01 0.02 0.01 0.01 0.01 0.00 0.01 0.04 0.07 0.12 0.28 0.18 0.17 0.18 0.18 0.09 0.09 0.08 0.10 0.08 0.08 0.02 0.03 0.02 0.00 0.01 0.01 0.01 0.00 0.00 0.00 0.00 0.00 0.00 0.00 0.00 0.00 0.00 0.00 0.00 0.00
0.00 0.00 0.01 0.01 0.01 0.01 0.02 0.02 0.04 0.10 0.12 0.18 0.26 0.26 0.18 0.14 0.10 0.08 0.09 0.07 0.05 0.06 0.02 0.01 0.00 0.01 0.02 0.05 0.05 0.04 0.02 0.00 0.00 0.00 0.00 0.00 0.00 0.00 0.00 0.00 0.00 0.00 0.00
0.01 0.01 0.00 0.00 0.03 0.07 0.07 0.06 0.07 0.09 0.14 0.18 0.25 0.20 0.14 0.09 0.08 0.04 0.04 0.04 0.03 0.02 0.02 0.01 0.00 0.01 0.05 0.08 0.06 0.03 0.01 0.00 0.00 0.01 0.02 0.03 0.03 0.02 0.03 0.01 0.00 0.00 0.00
0.00 0.01 0.02 0.02 0.04 0.18 0.15 0.05 0.03 0.03 0.05 0.08 0.13 0.13 0.13 0.10 0.08 0.07 0.12 0.05 0.03 0.02 0.02 0.03 0.03 0.06 0.08 0.06 0.03 0.02 0.04 0.09 0.17 0.20 0.18 0.13 0.11 0.09 0.05 0.01 0.00 0.01 0.00
0.00 0.00 0.01 0.02 0.07 0.20 0.15 0.04 0.01 0.00 0.01 0.02 0.06 0.11 0.14 0.07 0.13 0.31 0.17 0.14 0.05 0.04 0.04 0.13 0.15 0.11 0.08 0.04 0.05 0.14 0.22 0.24 0.23 0.21 0.16 0.12 0.07 0.03 0.02 0.01 0.00 0.02 0.02
0.00 0.00 0.01 0.01 0.06 0.16 0.16 0.18 0.10 0.02 0.00 0.01 0.04 0.04 0.13 0.15 0.17 0.29 0.11 0.15 0.16 0.22 0.35 0.32 0.25 0.20 0.17 0.24 0.39 0.45 0.39 0.29 0.21 0.16 0.11 0.06 0.03 0.02 0.01 0.00 0.00 0.00 0.01
0.00 0.00 0.00 0.00 0.04 0.13 0.15 0.17 0.26 0.18 0.06 0.02 0.02 0.04 0.18 0.18 0.27 0.26 0.29 0.29 0.47 0.53 0.53 0.56 0.54 0.66 0.76 0.61 0.35 0.24 0.17 0.12 0.09 0.06 0.02 0.01 0.00 0.00 0.00 0.00 0.00 0.00 0.00
0.00 0.00 0.00 0.00 0.01 0.10 0.14 0.08 0.22 0.22 0.22 0.16 0.12 0.13 0.30 0.33 0.35 0.49 0.49 0.62 0.77 0.77 0.80 0.82 0.62 0.44 0.31 0.21 0.12 0.08 0.07 0.05 0.03 0.01 0.00 0.00 0.00 0.00 0.00 0.00 0.00 0.00 0.00
0.00 0.00 0.00 0.00 0.01 0.05 0.12 0.09 0.12 0.15 0.22 0.32 0.36 0.24 0.38 0.38 0.66 0.76 1.01 1.15 1.14 1.18 1.05 0.67 0.46 0.33 0.19 0.13 0.09 0.06 0.03 0.02 0.02 0.02 0.02 0.01 0.01 0.00 0.00 0.00 0.00 0.00 0.00
0.00 0.00 0.00 0.00 0.03 0.08 0.14 0.14 0.25 0.21 0.28 0.36 0.38 0.31 0.32 0.43 0.55 0.67 0.81 1.16 1.19 0.87 0.51 0.38 0.33 0.19 0.10 0.06 0.04 0.05 0.06 0.06 0.05 0.03 0.02 0.01 0.01 0.00 0.00 0.00 0.00 0.00 0.00
0.00 0.00 0.00 0.00 0.04 0.11 0.13 0.15 0.20 0.24 0.34 0.39 0.47 0.41 0.55 0.91 0.94 0.95 0.78 0.54 0.31 0.22 0.14 0.08 0.05 0.03 0.03 0.06 0.05 0.04 0.03 0.04 0.04 0.04 0.02 0.01 0.01 0.00 0.00 0.00 0.00 0.00 0.00
0.00 0.00 0.00 0.00 0.05 0.13 0.11 0.11 0.19 0.22 0.26 0.28 0.30 0.46 0.55 0.38 0.35 0.31 0.24 0.16 0.10 0.08 0.05 0.03 0.03 0.06 0.07 0.16 0.16 0.13 0.15 0.18 0.16 0.06 0.01 0.01 0.00 0.00 0.00 0.00 0.00 0.00 0.00
0.00 0.00 0.00 0.01 0.03 0.08 0.13 0.15 0.16 0.18 0.18 0.17 0.18 0.21 0.16 0.10 0.10 0.09 0.08 0.07 0.05 0.06 0.04 0.04 0.05 0.08 0.10 0.21 0.12 0.08 0.05 0.04 0.03 0.02 0.01 0.00 0.00 0.00 0.00 0.00 0.00 0.00 0.00
0.00 0.00 0.00 0.00 0.01 0.02 0.05 0.10 0.10 0.10 0.11 0.11 0.09 0.07 0.05 0.04 0.03 0.04 0.05 0.04 0.06 0.05 0.06 0.08 0.12 0.13 0.16 0.21 0.17 0.16 0.11 0.06 0.00 0.00 0.00 0.00 0.00 0.00 0.00 0.00 0.00 0.01 0.02
0.00 0.00 0.00 0.00 0.00 0.00 0.00 0.01 0.04 0.04 0.03 0.03 0.03 0.01 0.01 0.01 0.02 0.02 0.02 0.03 0.05 0.06 0.08 0.11 0.13 0.13 0.13 0.14 0.09 0.04 0.01 0.00 0.00 0.00 0.00 0.00 0.00 0.00 0.00 0.00 0.01 0.01 0.00
0.00 0.00 0.00 0.00 0.00 0.00 0.00 0.00 0.00 0.00 0.01 0.02 0.01 0.01 0.00 0.00 0.00 0.01 0.01 0.02 0.03 0.06 0.07 0.06 0.05 0.06 0.04 0.05 0.03 0.01 0.00 0.00 0.00 0.00 0.00 0.00 0.00 0.00 0.00 0.01 0.02 0.04 0.01
0.00 0.00 0.00 0.00 0.00 0.00 0.00 0.00 0.00 0.00 0.00 0.01 0.00 0.00 0.00 0.00 0.00 0.00 0.01 0.01 0.02 0.01 0.01 0.01 0.02 0.02 0.02 0.02 0.02 0.01 0.01 0.00 0.00 0.00 0.00 0.00 0.00 0.00 0.00 0.01 0.03 0.03 0.02
0.00 0.00 0.00 0.00 0.00 0.00 0.00 0.00 0.00 0.00 0.00 0.00 0.00 0.00 0.00 0.00 0.00 0.00 0.00 0.00 0.00 0.00 0.01 0.01 0.01 0.01 0.02 0.01 0.01 0.01 0.00 0.00 0.01 0.01 0.00 0.00 0.00 0.01 0.00 0.01 0.01 0.01 0.03
0.00 0.00 0.00 0.00 0.00 0.00 0.00 0.00 0.00 0.00 0.00 0.00 0.00 0.00 0.00 0.00 0.00 0.00 0.00 0.01 0.00 0.01 0.01 0.01 0.02 0.04 0.05 0.04 0.02 0.00 0.00 0.00 0.02 0.03 0.02 0.01 0.03 0.06 0.08 0.05 0.05 0.10 0.17
0.00 0.00 0.00 0.00 0.00 0.00 0.00 0.00 0.00 0.00 0.00 0.00 0.00 0.00 0.00 0.00 0.00 0.00 0.00 0.01 0.01 0.01 0.03 0.08 0.10 0.09 0.04 0.01 0.00 0.01 0.01 0.01 0.03 0.04 0.04 0.05 0.05 0.06 0.06 0.07 0.07 0.11 0.10
0.00 0.00 0.00 0.00 0.00 0.00 0.00 0.00 0.00 0.00 0.00 0.00 0.00 0.00 0.00 0.00 0.00 0.01 0.01 0.02 0.07 0.08 0.07 0.05 0.03 0.03 0.04 0.03 0.02 0.02 0.03 0.04 0.06 0.08 0.10 0.08 0.08 0.08 0.08 0.08 0.07 0.06 0.07
0.00 0.00 0.00 0.00 0.00 0.00 0.00 0.00 0.00 0.00 0.00 0.00 0.00 0.00 0.01 0.02 0.04 0.06 0.09 0.09 0.07 0.05 0.05 0.05 0.05 0.04 0.04 0.02 0.01 0.03 0.06 0.09 0.12 0.21 0.14 0.09 0.10 0.09 0.09 0.12 0.11 0.10 0.10

GFSMW_prec_precacc24_090.txt.gz
Total_Precipitation_Accumulation
0.00 0.01 0.01 0.02 0.04 0.04 0.03 0.10 0.27 0.39 0.12 0.09 0.04 0.07 0.09 0.17 0.24 0.21 0.22 0.15 0.17 0.10 0.18 0.08 0.04 0.00 0.00 0.00 0.00 0.00 0.00 0.00 0.00 0.00 0.00 0.00 0.00 0.00 0.00 0.00 0.00 0.00 0.00
0.00 0.00 0.00 0.01 0.00 0.00 0.01 0.02 0.13 0.32 0.12 0.08 0.03 0.04 0.04 0.10 0.18 0.24 0.13 0.12 0.20 0.19 0.08 0.02 0.07 0.00 0.00 0.00 0.01 0.00 0.00 0.00 0.00 0.00 0.00 0.00 0.00 0.00 0.00 0.00 0.00 0.00 0.00
0.00 0.00 0.00 0.01 0.01 0.00 0.00 0.00 0.02 0.15 0.11 0.04 0.03 0.01 0.11 0.13 0.14 0.28 0.20 0.09 0.18 0.30 0.23 0.03 0.03 0.02 0.01 0.01 0.01 0.01 0.00 0.00 0.00 0.00 0.00 0.00 0.00 0.00 0.00 0.00 0.00 0.00 0.00
0.00 0.00 0.00 0.00 0.00 0.00 0.00 0.00 0.00 0.03 0.06 0.09 0.03 0.03 0.10 0.13 0.09 0.09 0.06 0.07 0.08 0.10 0.08 0.02 0.01 0.01 0.02 0.01 0.02 0.02 0.01 0.00 0.00 0.00 0.00 0.00 0.00 0.00 0.00 0.00 0.00 0.00 0.00
0.00 0.00 0.00 0.00 0.00 0.00 0.00 0.00 0.00 0.00 0.02 0.04 0.12 0.06 0.10 0.16 0.18 0.09 0.09 0.08 0.10 0.08 0.08 0.02 0.03 0.02 0.00 0.02 0.04 0.02 0.02 0.01 0.01 0.00 0.00 0.00 0.00 0.00 0.00 0.00 0.00 0.00 0.00
0.00 0.00 0.00 0.00 0.00 0.00 0.00 0.00 0.00 0.01 0.06 0.08 0.09 0.14 0.13 0.13 0.10 0.08 0.09 0.07 0.05 0.06 0.02 0.01 0.00 0.00 0.02 0.05 0.06 0.10 0.06 0.03 0.01 0.00 0.00 0.00 0.00 0.00 0.00 0.00 0.00 0.00 0.00
0.01 0.01 0.00 0.00 0.02 0.02 0.01 0.01 0.01 0.01 0.05 0.08 0.15 0.12 0.12 0.09 0.08 0.04 0.04 0.04 0.03 0.02 0.02 0.01 0.00 0.01 0.06 0.08 0.08 0.10 0.08 0.04 0.03 0.03 0.03 0.03 0.04 0.04 0.05 0.04 0.03 0.02 0.01
0.00 0.01 0.01 0.01 0.02 0.02 0.02 0.02 0.02 0.02 0.03 0.02 0.07 0.09 0.10 0.06 0.08 0.07 0.12 0.05 0.03 0.02 0.01 0.01 0.01 0.05 0.08 0.06 0.04 0.05 0.07 0.14 0.21 0.22 0.19 0.16 0.13 0.10 0.06 0.03 0.02 0.02 0.00
0.00 0.00 0.01 0.02 0.06 0.07 0.10 0.04 0.01 0.00 0.00 0.01 0.03 0.07 0.11 0.06 0.13 0.31 0.17 0.14 0.04 0.04 0.02 0.07 0.13 0.11 0.08 0.04 0.07 0.16 0.26 0.29 0.26 0.22 0.17 0.14 0.08 0.04 0.02 0.01 0.00 0.01 0.00
0.00 0.00 0.01 0.01 0.05 0.10 0.15 0.19 0.10 0.02 0.00 0.01 0.03 0.03 0.13 0.15 0.17 0.28 0.11 0.15 0.16 0.18 0.28 0.30 0.25 0.20 0.17 0.25 0.43 0.49 0.44 0.33 0.24 0.18 0.13 0.09 0.06 0.03 0.01 0.00 0.00 0.00 0.00
0.00 0.00 0.00 0.00 0.03 0.11 0.12 0.19 0.29 0.19 0.06 0.02 0.01 0.04 0.18 0.18 0.27 0.26 0.29 0.28 0.43 0.50 0.53 0.56 0.55 0.68 0.80 0.72 0.58 0.48 0.38 0.24 0.13 0.08 0.05 0.03 0.02 0.00 0.00 0.00 0.00 0.00 0.00
0.00 0.00 0.00 0.00 0.01 0.06 0.09 0.08 0.24 0.25 0.26 0.16 0.11 0.13 0.30 0.33 0.35 0.49 0.48 0.59 0.75 0.80 0.89 0.92 0.75 0.64 0.66 0.68 0.62 0.53 0.40 0.17 0.06 0.03 0.02 0.01 0.01 0.00 0.00 0.00 0.00 0.00 0.00
0.00 0.00 0.00 0.00 0.00 0.02 0.09 0.07 0.11 0.15 0.23 0.35 0.38 0.24 0.38 0.38 0.66 0.72 0.96 1.14 1.15 1.22 1.19 1.13 0.97 0.84 0.66 0.47 0.33 0.22 0.13 0.07 0.07 0.06 0.04 0.03 0.02 0.03 0.04 0.02 0.00 0.00 0.00
0.00 0.00 0.00 0.00 0.00 0.02 0.07 0.10 0.18 0.17 0.26 0.34 0.36 0.29 0.32 0.43 0.56 0.68 0.82 1.18 1.23 0.95 0.73 0.67 0.48 0.20 0.11 0.07 0.07 0.09 0.10 0.11 0.10 0.07 0.05 0.04 0.03 0.03 0.03 0.02 0.01 0.01 0.01
0.00 0.00 0.00 0.00 0.00 0.04 0.07 0.08 0.16 0.20 0.31 0.36 0.43 0.37 0.53 0.91 0.95 0.98 0.83 0.61 0.40 0.33 0.25 0.16 0.10 0.05 0.04 0.07 0.08 0.07 0.06 0.06 0.07 0.10 0.12 0.14 0.14 0.08 0.03 0.01 0.02 0.02 0.01
0.00 0.00 0.00 0.00 0.02 0.08 0.07 0.07 0.16 0.18 0.20 0.23 0.24 0.43 0.55 0.39 0.38 0.34 0.27 0.20 0.15 0.13 0.11 0.11 0.09 0.10 0.09 0.21 0.20 0.16 0.16 0.19 0.21 0.21 0.17 0.14 0.14 0.10 0.06 0.03 0.01 0.00 0.00
0.00 0.00 0.00 0.00 0.01 0.05 0.11 0.11 0.12 0.14 0.14 0.16 0.18 0.21 0.16 0.11 0.11 0.10 0.10 0.10 0.09 0.09 0.08 0.08 0.08 0.10 0.13 0.30 0.25 0.22 0.14 0.16 0.15 0.12 0.10 0.08 0.05 0.03 0.02 0.01 0.00 0.00 0.00
0.00 0.00 0.00 0.00 0.00 0.02 0.04 0.10 0.09 0.10 0.10 0.11 0.09 0.07 0.05 0.04 0.03 0.04 0.06 0.06 0.08 0.07 0.08 0.10 0.15 0.18 0.31 0.43 0.32 0.33 0.27 0.29 0.23 0.19 0.14 0.08 0.01 0.00 0.00 0.00 0.00 0.01 0.02
0.00 0.00 0.00 0.00 0.00 0.00 0.00 0.01 0.03 0.04 0.03 0.04 0.04 0.03 0.02 0.02 0.03 0.05 0.03 0.04 0.06 0.07 0.10 0.12 0.15 0.16 0.23 0.31 0.23 0.18 0.13 0.12 0.08 0.05 0.02 0.01 0.01 0.00 0.00 0.00 0.01 0.01 0.00
0.00 0.00 0.00 0.00 0.00 0.00 0.00 0.00 0.00 0.00 0.01 0.02 0.03 0.02 0.02 0.02 0.02 0.02 0.02 0.03 0.05 0.10 0.10 0.11 0.10 0.13 0.09 0.15 0.10 0.05 0.02 0.02 0.02 0.02 0.03 0.04 0.02 0.00 0.00 0.01 0.02 0.04 0.01
0.00 0.00 0.00 0.00 0.00 0.00 0.00 0.00 0.00 0.01 0.01 0.01 0.01 0.00 0.00 0.00 0.01 0.01 0.01 0.02 0.03 0.02 0.01 0.01 0.02 0.03 0.04 0.06 0.06 0.04 0.04 0.05 0.06 0.05 0.02 0.01 0.00 0.00 0.01 0.01 0.03 0.03 0.02
0.00 0.00 0.00 0.00 0.00 0.00 0.00 0.00 0.00 0.00 0.00 0.00 0.00 0.00 0.00 0.00 0.00 0.00 0.01 0.01 0.01 0.01 0.02 0.02 0.03 0.04 0.05 0.07 0.08 0.09 0.07 0.05 0.04 0.03 0.01 0.01 0.01 0.01 0.01 0.02 0.02 0.01 0.03
0.00 0.00 0.00 0.00 0.00 0.00 0.00 0.00 0.00 0.00 0.00 0.00 0.00 0.00 0.00 0.00 0.00 0.00 0.00 0.01 0.01 0.01 0.02 0.02 0.03 0.06 0.10 0.12 0.12 0.07 0.04 0.02 0.03 0.04 0.03 0.03 0.03 0.03 0.05 0.03 0.04 0.09 0.16
0.00 0.00 0.00 0.00 0.00 0.00 0.00 0.00 0.00 0.00 0.00 0.00 0.00 0.00 0.00 0.00 0.00 0.00 0.01 0.01 0.01 0.02 0.05 0.11 0.15 0.15 0.12 0.09 0.07 0.06 0.07 0.06 0.07 0.06 0.05 0.04 0.05 0.05 0.05 0.05 0.05 0.08 0.09
0.00 0.00 0.00 0.00 0.00 0.00 0.00 0.00 0.00 0.00 0.00 0.00 0.00 0.00 0.00 0.00 0.00 0.01 0.02 0.04 0.12 0.14 0.15 0.14 0.13 0.13 0.14 0.12 0.09 0.07 0.06 0.05 0.05 0.10 0.13 0.12 0.11 0.10 0.09 0.08 0.07 0.06 0.07
0.00 0.00 0.00 0.00 0.00 0.00 0.00 0.00 0.00 0.00 0.00 0.00 0.00 0.00 0.01 0.02 0.04 0.08 0.13 0.15 0.14 0.12 0.12 0.12 0.11 0.11 0.10 0.07 0.05 0.05 0.06 0.06 0.07 0.16 0.16 0.11 0.11 0.11 0.11 0.13 0.12 0.10 0.09

GFSMW_prec_precacc24_096.txt.gz
Total_Precipitation_Accumulation
0.00 0.01 0.01 0.02 0.04 0.04 0.04 0.11 0.29 0.43 0.24 0.14 0.27 0.51 0.36 0.35 0.35 0.37 0.36 0.27 0.21 0.12 0.19 0.08 0.04 0.00 0.00 0.00 0.00 0.00 0.01 0.01 0.01 0.00 0.00 0.00 0.00 0.00 0.00 0.00 0.00 0.00 0.00
0.00 0.00 0.01 0.01 0.01 0.01 0.01 0.02 0.15 0.36 0.16 0.14 0.18 0.30 0.17 0.18 0.21 0.31 0.20 0.17 0.22 0.21 0.09 0.02 0.07 0.00 0.00 0.00 0.01 0.01 0.02 0.02 0.02 0.01 0.00 0.00 0.00 0.00 0.00 0.00 0.00 0.00 0.00
0.00 0.00 0.00 0.01 0.01 0.01 0.00 0.00 0.02 0.22 0.18 0.07 0.07 0.12 0.23 0.18 0.14 0.28 0.21 0.11 0.20 0.31 0.24 0.04 0.03 0.02 0.01 0.01 0.01 0.01 0.01 0.02 0.02 0.01 0.00 0.00 0.00 0.00 0.00 0.00 0.00 0.00 0.00
0.00 0.00 0.00 0.00 0.01 0.00 0.00 0.00 0.00 0.04 0.08 0.08 0.04 0.03 0.09 0.08 0.02 0.05 0.04 0.08 0.09 0.10 0.10 0.03 0.02 0.02 0.02 0.01 0.03 0.03 0.03 0.02 0.02 0.02 0.01 0.00 0.00 0.00 0.00 0.00 0.00 0.00 0.00
0.00 0.00 0.00 0.00 0.00 0.00 0.00 0.00 0.00 0.00 0.01 0.02 0.08 0.01 0.02 0.05 0.10 0.03 0.05 0.08 0.10 0.09 0.08 0.04 0.05 0.04 0.01 0.06 0.06 0.04 0.04 0.05 0.04 0.04 0.03 0.02 0.00 0.00 0.00 0.00 0.00 0.00 0.00
0.00 0.00 0.00 0.00 0.00 0.00 0.00 0.00 0.00 0.00 0.01 0.01 0.01 0.02 0.00 0.01 0.01 0.02 0.05 0.06 0.05 0.06 0.02 0.01 0.01 0.01 0.02 0.06 0.07 0.13 0.11 0.10 0.08 0.06 0.04 0.03 0.03 0.03 0.06 0.12 0.11 0.06 0.01
0.01 0.01 0.00 0.00 0.00 0.00 0.00 0.00 0.00 0.00 0.00 0.00 0.00 0.00 0.01 0.01 0.02 0.01 0.03 0.04 0.03 0.02 0.02 0.01 0.01 0.01 0.05 0.07 0.08 0.11 0.10 0.09 0.07 0.08 0.08 0.09 0.10 0.10 0.14 0.16 0.14 0.09 0.02
0.00 0.01 0.01 0.01 0.00 0.00 0.00 0.00 0.00 0.00 0.00 0.00 0.00 0.01 0.02 0.01 0.05 0.05 0.11 0.05 0.03 0.02 0.01 0.01 0.01 0.02 0.04 0.06 0.08 0.08 0.09 0.15 0.24 0.25 0.23 0.22 0.19 0.16 0.13 0.09 0.09 0.08 0.02
0.00 0.00 0.01 0.02 0.04 0.04 0.03 0.01 0.00 0.00 0.00 0.00 0.00 0.02 0.07 0.04 0.08 0.28 0.16 0.14 0.04 0.04 0.02 0.06 0.06 0.03 0.03 0.04 0.09 0.17 0.26 0.31 0.29 0.26 0.22 0.17 0.11 0.07 0.06 0.06 0.06 0.06 0.04
0.00 0.00 0.01 0.01 0.05 0.09 0.13 0.17 0.08 0.02 0.00 0.00 0.00 0.00 0.08 0.09 0.12 0.23 0.10 0.15 0.16 0.18 0.26 0.22 0.13 0.10 0.14 0.25 0.43 0.49 0.45 0.35 0.27 0.22 0.17 0.12 0.09 0.08 0.09 0.11 0.10 0.12 0.16
0.00 0.00 0.00 0.00 0.03 0.11 0.11 0.18 0.26 0.18 0.07 0.02 0.00 0.02 0.13 0.13 0.19 0.18 0.25 0.26 0.41 0.46 0.41 0.38 0.41 0.64 0.80 0.73 0.59 0.50 0.41 0.33 0.28 0.22 0.20 0.20 0.19 0.21 0.22 0.24 0.27 0.29 0.31
0.00 0.00 0.00 0.00 0.01 0.05 0.08 0.05 0.20 0.23 0.28 0.17 0.09 0.07 0.20 0.24 0.28 0.43 0.44 0.52 0.63 0.69 0.82 0.89 0.75 0.65 0.71 0.84 0.89 0.79 0.70 0.62 0.55 0.47 0.47 0.44 0.42 0.44 0.34 0.27 0.22 0.17 0.15
0.00 0.00 0.00 0.00 0.00 0.02 0.05 0.05 0.06 0.11 0.21 0.30 0.30 0.15 0.28 0.30 0.57 0.61 0.79 0.94 1.01 1.15 1.18 1.15 1.02 0.90 0.79 0.64 0.55 0.46 0.36 0.29 0.26 0.25 0.25 0.22 0.22 0.22 0.20 0.18 0.16 0.14 0.13
0.00 0.00 0.00 0.00 0.00 0.00 0.01 0.05 0.05 0.07 0.10 0.20 0.27 0.23 0.27 0.38 0.48 0.55 0.62 0.99 1.13 0.92 0.72 0.68 0.53 0.27 0.13 0.08 0.08 0.10 0.12 0.14 0.16 0.16 0.16 0.17 0.17 0.17 0.22 0.25 0.25 0.25 0.26
0.00 0.00 0.00 0.00 0.00 0.00 0.00 0.01 0.03 0.06 0.16 0.21 0.33 0.31 0.38 0.63 0.66 0.69 0.62 0.53 0.40 0.34 0.28 0.21 0.16 0.12 0.08 0.10 0.10 0.08 0.08 0.10 0.13 0.16 0.19 0.20 0.24 0.26 0.23 0.20 0.17 0.21 0.25
0.00 0.00 0.00 0.00 0.00 0.00 0.00 0.01 0.05 0.08 0.16 0.20 0.20 0.27 0.32 0.25 0.29 0.27 0.24 0.20 0.17 0.16 0.14 0.15 0.13 0.15 0.14 0.27 0.25 0.21 0.18 0.22 0.24 0.24 0.20 0.19 0.31 0.25 0.30 0.31 0.32 0.30 0.31
0.00 0.00 0.00 0.00 0.00 0.00 0.03 0.04 0.06 0.11 0.13 0.15 0.16 0.19 0.16 0.11 0.12 0.11 0.11 0.11 0.10 0.10 0.10 0.10 0.10 0.13 0.19 0.45 0.31 0.31 0.18 0.19 0.25 0.31 0.37 0.42 0.45 0.46 0.35 0.35 0.32 0.28 0.27
0.00 0.00 0.00 0.00 0.00 0.02 0.03 0.06 0.07 0.08 0.09 0.10 0.09 0.07 0.06 0.05 0.04 0.06 0.08 0.09 0.11 0.09 0.11 0.15 0.23 0.26 0.39 0.53 0.36 0.39 0.30 0.34 0.39 0.38 0.32 0.27 0.23 0.21 0.17 0.13 0.14 0.16 0.18
0.00 0.00 0.00 0.00 0.00 0.00 0.00 0.01 0.03 0.04 0.03 0.04 0.05 0.03 0.03 0.03 0.06 0.10 0.10 0.08 0.10 0.13 0.16 0.17 0.19 0.19 0.26 0.38 0.25 0.20 0.13 0.14 0.13 0.11 0.10 0.10 0.10 0.17 0.16 0.14 0.15 0.13 0.10
0.00 0.00 0.00 0.00 0.00 0.00 0.00 0.00 0.00 0.01 0.01 0.03 0.03 0.03 0.04 0.04 0.05 0.05 0.05 0.06 0.09 0.13 0.13 0.15 0.12 0.16 0.11 0.19 0.14 0.08 0.03 0.05 0.06 0.08 0.12 0.18 0.12 0.11 0.08 0.08 0.10 0.12 0.09
0.00 0.00 0.00 0.00 0.00 0.00 0.00 0.00 0.00 0.01 0.01 0.02 0.02 0.02 0.02 0.02 0.02 0.03 0.04 0.05 0.05 0.04 0.03 0.03 0.03 0.04 0.05 0.08 0.09 0.08 0.06 0.10 0.12 0.13 0.11 0.10 0.14 0.10 0.08 0.08 0.11 0.12 0.08
0.00 0.00 0.00 0.00 0.00 0.00 0.00 0.00 0.00 0.00 0.01 0.01 0.01 0.01 0.01 0.01 0.01 0.01 0.01 0.02 0.02 0.02 0.02 0.03 0.05 0.05 0.07 0.12 0.14 0.14 0.14 0.16 0.15 0.17 0.16 0.12 0.09 0.08 0.07 0.07 0.06 0.04 0.05
0.00 0.00 0.00 0.00 0.00 0.00 0.00 0.00 0.00 0.00 0.00 0.00 0.00 0.00 0.00 0.00 0.00 0.00 0.00 0.01 0.01 0.01 0.02 0.03 0.05 0.09 0.13 0.20 0.23 0.16 0.13 0.13 0.14 0.14 0.11 0.09 0.07 0.06 0.08 0.05 0.03 0.03 0.07
0.00 0.00 0.00 0.00 0.00 0.00 0.00 0.00 0.00 0.00 0.00 0.00 0.00 0.00 0.00 0.00 0.00 0.00 0.01 0.01 0.02 0.03 0.07 0.14 0.20 0.22 0.20 0.18 0.16 0.13 0.13 0.12 0.10 0.07 0.06 0.05 0.05 0.06 0.07 0.07 0.06 0.06 0.06
0.01 0.00 0.00 0.00 0.00 0.00 0.00 0.00 0.00 0.00 0.00 0.00 0.00 0.00 0.00 0.00 0.00 0.01 0.03 0.05 0.15 0.16 0.18 0.19 0.18 0.17 0.18 0.17 0.12 0.08 0.06 0.04 0.03 0.03 0.06 0.08 0.09 0.09 0.09 0.08 0.08 0.08 0.08
0.02 0.00 0.01 0.01 0.00 0.00 0.00 0.00 0.00 0.00 0.00 0.00 0.00 0.00 0.01 0.02 0.04 0.08 0.14 0.17 0.15 0.14 0.14 0.14 0.12 0.13 0.12 0.09 0.07 0.06 0.06 0.07 0.05 0.03 0.04 0.04 0.05 0.05 0.07 0.10 0.12 0.11 0.10

GFSMW_prec_precacc24_099.txt.gz
Total_Precipitation_Accumulation
0.00 0.01 0.01 0.02 0.04 0.05 0.04 0.11 0.24 0.32 0.19 0.11 0.32 0.77 0.72 0.59 0.57 0.49 0.46 0.40 0.31 0.17 0.21 0.08 0.05 0.00 0.00 0.00 0.00 0.00 0.01 0.01 0.01 0.00 0.00 0.00 0.00 0.00 0.00 0.00 0.00 0.00 0.00
0.00 0.00 0.01 0.01 0.01 0.01 0.02 0.01 0.10 0.28 0.12 0.14 0.22 0.49 0.54 0.53 0.41 0.46 0.44 0.42 0.36 0.26 0.11 0.03 0.07 0.00 0.00 0.00 0.01 0.01 0.02 0.02 0.02 0.01 0.00 0.00 0.00 0.00 0.00 0.00 0.00 0.00 0.00
0.00 0.00 0.00 0.01 0.01 0.01 0.00 0.00 0.01 0.16 0.14 0.05 0.10 0.27 0.47 0.46 0.43 0.55 0.49 0.41 0.35 0.35 0.26 0.06 0.03 0.02 0.01 0.01 0.01 0.01 0.01 0.02 0.02 0.02 0.00 0.00 0.00 0.00 0.00 0.00 0.00 0.00 0.00
0.00 0.00 0.00 0.00 0.01 0.00 0.00 0.00 0.00 0.03 0.05 0.03 0.03 0.10 0.28 0.29 0.25 0.27 0.26 0.25 0.19 0.14 0.11 0.05 0.03 0.02 0.02 0.01 0.03 0.03 0.03 0.02 0.02 0.02 0.01 0.00 0.00 0.00 0.00 0.00 0.00 0.00 0.00
0.00 0.00 0.00 0.00 0.00 0.00 0.00 0.00 0.00 0.00 0.01 0.01 0.05 0.02 0.07 0.11 0.18 0.15 0.15 0.15 0.15 0.14 0.11 0.06 0.05 0.04 0.02 0.06 0.06 0.04 0.04 0.05 0.04 0.04 0.03 0.02 0.01 0.01 0.01 0.01 0.00 0.00 0.00
0.00 0.00 0.00 0.00 0.00 0.00 0.00 0.00 0.00 0.00 0.01 0.01 0.00 0.03 0.01 0.01 0.04 0.06 0.05 0.06 0.08 0.09 0.05 0.03 0.02 0.02 0.02 0.06 0.08 0.14 0.11 0.10 0.08 0.06 0.05 0.03 0.03 0.04 0.07 0.12 0.12 0.10 0.03
0.01 0.01 0.00 0.00 0.00 0.00 0.00 0.00 0.00 0.00 0.00 0.00 0.00 0.00 0.01 0.01 0.00 0.00 0.03 0.02 0.01 0.02 0.03 0.02 0.01 0.02 0.06 0.07 0.09 0.13 0.15 0.10 0.08 0.08 0.12 0.13 0.11 0.11 0.15 0.17 0.15 0.11 0.05
0.00 0.01 0.01 0.01 0.00 0.00 0.00 0.00 0.00 0.00 0.00 0.00 0.00 0.01 0.02 0.01 0.04 0.04 0.10 0.03 0.02 0.01 0.01 0.01 0.01 0.02 0.04 0.06 0.10 0.15 0.16 0.21 0.29 0.27 0.24 0.24 0.20 0.16 0.13 0.10 0.10 0.11 0.05
0.00 0.00 0.01 0.02 0.04 0.04 0.03 0.01 0.00 0.00 0.00 0.00 0.00 0.01 0.07 0.04 0.07 0.25 0.13 0.13 0.03 0.04 0.02 0.06 0.06 0.03 0.03 0.04 0.11 0.19 0.30 0.36 0.33 0.29 0.25 0.21 0.12 0.09 0.07 0.06 0.06 0.08 0.09
0.00 0.00 0.01 0.01 0.05 0.09 0.13 0.17 0.08 0.02 0.00 0.00 0.00 0.00 0.08 0.09 0.11 0.20 0.06 0.10 0.14 0.17 0.26 0.22 0.13 0.09 0.08 0.17 0.38 0.49 0.47 0.38 0.30 0.25 0.19 0.14 0.10 0.08 0.10 0.11 0.11 0.13 0.20
0.00 0.00 0.00 0.00 0.03 0.11 0.11 0.18 0.26 0.18 0.07 0.02 0.00 0.01 0.12 0.12 0.18 0.14 0.18 0.17 0.38 0.45 0.41 0.37 0.36 0.53 0.69 0.67 0.58 0.50 0.41 0.34 0.29 0.23 0.21 0.20 0.20 0.24 0.25 0.28 0.32 0.36 0.41
0.00 0.00 0.00 0.00 0.01 0.05 0.08 0.05 0.20 0.23 0.28 0.17 0.08 0.06 0.19 0.22 0.26 0.41 0.39 0.47 0.58 0.60 0.69 0.78 0.66 0.59 0.68 0.84 0.89 0.79 0.70 0.62 0.55 0.47 0.48 0.45 0.43 0.45 0.36 0.32 0.28 0.25 0.23
0.00 0.00 0.00 0.00 0.00 0.02 0.05 0.05 0.06 0.11 0.21 0.29 0.28 0.12 0.27 0.29 0.56 0.56 0.71 0.85 0.86 0.95 1.07 1.08 0.94 0.86 0.78 0.64 0.55 0.46 0.36 0.29 0.27 0.25 0.26 0.22 0.23 0.23 0.21 0.21 0.23 0.25 0.22
0.00 0.00 0.00 0.00 0.00 0.00 0.01 0.05 0.05 0.07 0.10 0.18 0.24 0.22 0.27 0.37 0.47 0.54 0.55 0.83 0.97 0.77 0.56 0.52 0.42 0.24 0.13 0.08 0.08 0.10 0.12 0.14 0.16 0.16 0.17 0.19 0.24 0.24 0.29 0.32 0.31 0.31 0.32
0.00 0.00 0.00 0.00 0.00 0.00 0.00 0.01 0.03 0.05 0.15 0.20 0.30 0.28 0.36 0.61 0.65 0.69 0.61 0.48 0.32 0.29 0.25 0.19 0.16 0.12 0.08 0.10 0.10 0.09 0.11 0.12 0.16 0.21 0.30 0.32 0.37 0.33 0.28 0.24 0.19 0.23 0.28
0.00 0.00 0.00 0.00 0.00 0.00 0.00 0.01 0.04 0.07 0.14 0.16 0.16 0.20 0.26 0.23 0.28 0.26 0.24 0.19 0.17 0.16 0.14 0.15 0.14 0.15 0.14 0.28 0.26 0.22 0.22 0.29 0.32 0.32 0.27 0.24 0.39 0.30 0.37 0.36 0.38 0.35 0.35
0.00 0.00 0.00 0.00 0.00 0.00 0.03 0.02 0.02 0.05 0.07 0.07 0.10 0.14 0.14 0.10 0.11 0.11 0.11 0.11 0.10 0.10 0.10 0.10 0.10 0.14 0.20 0.49 0.34 0.37 0.21 0.22 0.28 0.34 0.40 0.44 0.47 0.51 0.35 0.38 0.34 0.31 0.31
0.00 0.00 0.00 0.00 0.00 0.02 0.02 0.01 0.02 0.02 0.04 0.06 0.07 0.06 0.05 0.05 0.04 0.06 0.08 0.09 0.11 0.10 0.12 0.16 0.25 0.30 0.46 0.60 0.41 0.42 0.31 0.35 0.40 0.40 0.33 0.27 0.23 0.22 0.17 0.13 0.14 0.16 0.19
0.00 0.00 0.00 0.00 0.00 0.00 0.00 0.00 0.01 0.02 0.02 0.03 0.04 0.03 0.03 0.03 0.06 0.10 0.10 0.10 0.12 0.15 0.18 0.21 0.23 0.23 0.30 0.43 0.27 0.22 0.13 0.14 0.13 0.11 0.10 0.11 0.10 0.19 0.16 0.14 0.15 0.13 0.12
0.00 0.00 0.00 0.00 0.00 0.00 0.00 0.00 0.00 0.01 0.01 0.03 0.03 0.03 0.04 0.04 0.05 0.05 0.06 0.07 0.11 0.16 0.15 0.18 0.14 0.19 0.12 0.22 0.15 0.09 0.03 0.05 0.06 0.08 0.12 0.19 0.13 0.12 0.09 0.08 0.09 0.10 0.11
0.00 0.00 0.00 0.00 0.00 0.00 0.00 0.00 0.00 0.01 0.01 0.02 0.02 0.02 0.02 0.02 0.03 0.03 0.05 0.07 0.07 0.06 0.05 0.04 0.03 0.04 0.07 0.09 0.10 0.08 0.06 0.10 0.12 0.13 0.11 0.11 0.16 0.10 0.08 0.09 0.11 0.11 0.08
0.00 0.00 0.00 0.00 0.00 0.00 0.00 0.00 0.00 0.00 0.01 0.01 0.01 0.01 0.01 0.01 0.01 0.01 0.01 0.02 0.02 0.03 0.02 0.03 0.05 0.05 0.07 0.13 0.14 0.14 0.14 0.16 0.16 0.17 0.16 0.13 0.09 0.07 0.07 0.07 0.04 0.03 0.04
0.00 0.00 0.00 0.00 0.00 0.00 0.00 0.00 0.00 0.01 0.00 0.00 0.00 0.00 0.00 0.00 0.00 0.00 0.00 0.01 0.01 0.01 0.02 0.03 0.05 0.09 0.14 0.20 0.24 0.16 0.13 0.13 0.13 0.13 0.10 0.09 0.07 0.06 0.09 0.05 0.03 0.02 0.03
0.00 0.00 0.00 0.00 0.00 0.00 0.00 0.00 0.00 0.00 0.00 0.00 0.00 0.00 0.00 0.00 0.00 0.00 0.01 0.01 0.02 0.03 0.07 0.14 0.20 0.22 0.21 0.18 0.16 0.13 0.13 0.12 0.09 0.07 0.06 0.04 0.04 0.05 0.06 0.07 0.07 0.06 0.05
0.02 0.00 0.00 0.00 0.00 0.00 0.00 0.00 0.00 0.00 0.00 0.00 0.00 0.00 0.00 0.00 0.00 0.01 0.03 0.05 0.15 0.17 0.18 0.20 0.18 0.18 0.19 0.18 0.12 0.08 0.06 0.04 0.03 0.03 0.05 0.07 0.07 0.07 0.07 0.06 0.07 0.07 0.07
0.10 0.09 0.05 0.02 0.01 0.00 0.00 0.00 0.00 0.00 0.00 0.00 0.00 0.00 0.01 0.02 0.04 0.08 0.15 0.17 0.16 0.14 0.14 0.14 0.13 0.13 0.13 0.09 0.07 0.06 0.06 0.07 0.05 0.03 0.04 0.04 0.04 0.04 0.05 0.06 0.06 0.05 0.07